contact:dominique.lefevre@mio.osupytheas.fr, maurice.libes@osupytheas.fr
Project:EMSO Ligure-ouest http://www.emso-fr.org/EMSO-France
Sensor Aquadopp, line 04 Serial AQD8517 
DOI : "https://doi.org/10.17882/74513; https://doi.org/10.17882/83244" 
Title:EMSO Ligure Ouest : Data ligne ALBATROSS capteur AQUADOPP - deploiement 2021
Id,Date,Profondeur,Latitude,Longitude,X_East,Y_North,Z_Up,Amplitude_X,Amplitude_Y,Amplitude_Z,Batterie,SoundSpeed,Heading,Pitch,Roll,Pressure,Temperature,Speed,Direction
, , m, degrees North, degrees East, m.s-1, m.s-1,m.s-1, 1, 1, 1, Volt, m.s-1, degree, degree, degree, dbar, degree_C, m.s-1, degree
01,2022-03-27T21:00:00,500.0,42.79,6.0312,-0.057,0.05,0.003,55.0,52.0,53.0,12.1,1505.7,331.2,-0.2,0.7,451.813,13.6,0.075,311.3
01,2022-03-27T21:30:00,500.0,42.79,6.0312,-0.06,0.056,0.0,54.0,51.0,52.0,12.1,1505.7,337.0,-0.1,0.6,451.748,13.59,0.082,313.0
01,2022-03-27T22:00:00,500.0,42.79,6.0312,-0.059,0.052,0.005,57.0,52.0,53.0,12.1,1505.7,331.2,-0.1,0.6,451.761,13.59,0.078,311.4
01,2022-03-27T22:30:00,500.0,42.79,6.0312,-0.047,0.042,0.004,59.0,53.0,52.0,12.1,1505.7,326.4,-0.1,0.7,451.771,13.59,0.063,311.8
01,2022-03-27T23:00:00,500.0,42.79,6.0312,-0.051,0.061,-0.006,57.0,52.0,55.0,12.1,1505.7,330.1,-0.3,0.6,451.749,13.6,0.079,320.1
01,2022-03-27T23:30:00,500.0,42.79,6.0312,-0.033,0.06,0.023,58.0,51.0,54.0,12.1,1505.7,341.5,0.0,0.7,451.786,13.6,0.068,331.2
01,2022-03-28T00:00:00,500.0,42.79,6.0312,-0.036,0.036,-0.001,60.0,53.0,52.0,12.1,1505.7,341.4,-0.4,0.6,451.817,13.6,0.05,315.0
01,2022-03-28T00:30:00,500.0,42.79,6.0312,-0.033,0.035,0.006,58.0,53.0,53.0,12.1,1505.7,342.0,-0.4,0.7,451.784,13.6,0.048,316.7
01,2022-03-28T01:00:00,500.0,42.79,6.0312,-0.046,0.031,0.009,60.0,54.0,54.0,12.1,1505.7,344.5,-0.1,0.6,451.807,13.6,0.055,304.0
01,2022-03-28T01:30:00,500.0,42.79,6.0312,-0.05,0.028,0.006,59.0,53.0,55.0,12.1,1505.7,346.6,-0.2,0.6,451.879,13.61,0.057,299.3
01,2022-03-28T02:00:00,500.0,42.79,6.0312,-0.052,0.033,0.013,59.0,55.0,55.0,12.1,1505.8,338.7,-0.3,0.6,451.857,13.62,0.061,302.4
01,2022-03-28T02:30:00,500.0,42.79,6.0312,-0.052,0.035,0.014,58.0,58.0,55.0,12.1,1505.8,337.7,-0.3,0.6,451.913,13.62,0.062,303.9
01,2022-03-28T03:00:00,500.0,42.79,6.0312,-0.056,0.028,0.004,60.0,56.0,56.0,12.1,1505.8,338.4,-0.3,0.6,451.923,13.63,0.062,296.6
01,2022-03-28T03:30:00,500.0,42.79,6.0312,-0.074,0.019,-0.001,62.0,55.0,56.0,12.1,1505.8,336.0,-0.2,0.7,451.911,13.64,0.076,284.4
01,2022-03-28T04:00:00,500.0,42.79,6.0312,-0.073,0.029,0.001,58.0,54.0,57.0,12.1,1505.8,345.6,-0.1,0.6,451.961,13.64,0.078,291.7
01,2022-03-28T04:30:00,500.0,42.79,6.0312,-0.062,0.034,-0.01,60.0,56.0,54.0,12.1,1505.9,353.5,0.0,0.6,451.952,13.65,0.07,298.7
01,2022-03-28T05:00:00,500.0,42.79,6.0312,-0.056,0.022,0.002,60.0,55.0,53.0,12.1,1505.8,352.7,0.0,0.6,451.98,13.64,0.06,291.4
01,2022-03-28T05:30:00,500.0,42.79,6.0312,-0.055,0.014,0.008,58.0,52.0,54.0,12.1,1505.8,348.7,-0.2,0.6,451.979,13.64,0.056,284.3
01,2022-03-28T06:00:00,500.0,42.79,6.0312,-0.045,0.026,0.004,58.0,54.0,55.0,12.1,1505.8,342.9,-0.1,0.6,451.931,13.63,0.051,300.0
01,2022-03-28T06:30:00,500.0,42.79,6.0312,-0.051,0.025,-0.008,60.0,54.0,56.0,12.1,1505.8,337.6,-0.1,0.7,451.956,13.64,0.056,296.1
01,2022-03-28T07:00:00,500.0,42.79,6.0312,-0.043,0.011,0.003,59.0,54.0,55.0,12.1,1505.9,328.6,-0.1,0.6,451.887,13.65,0.044,284.3
01,2022-03-28T07:30:00,500.0,42.79,6.0312,-0.036,0.03,0.009,63.0,55.0,58.0,12.1,1505.9,330.6,-0.1,0.7,451.936,13.65,0.046,309.8
01,2022-03-28T08:00:00,500.0,42.79,6.0312,-0.037,0.027,-0.01,60.0,54.0,56.0,12.1,1505.9,339.4,-0.2,0.8,451.905,13.65,0.045,306.1
01,2022-03-28T08:30:00,500.0,42.79,6.0312,-0.017,0.024,-0.009,60.0,54.0,56.0,12.1,1505.9,344.3,-0.1,0.7,451.822,13.65,0.029,324.7
01,2022-03-28T09:00:00,500.0,42.79,6.0312,-0.029,0.014,0.012,58.0,58.0,55.0,12.1,1505.9,335.6,-0.1,0.6,451.854,13.65,0.032,295.8
01,2022-03-28T09:30:00,500.0,42.79,6.0312,-0.039,0.032,0.016,57.0,58.0,55.0,12.1,1505.8,334.4,-0.1,0.7,451.853,13.64,0.05,309.4
01,2022-03-28T10:00:00,500.0,42.79,6.0312,-0.036,0.045,0.008,59.0,54.0,55.0,12.1,1505.8,330.1,-0.2,0.5,451.844,13.62,0.057,321.3
01,2022-03-28T10:30:00,500.0,42.79,6.0312,-0.018,0.024,-0.007,57.0,55.0,54.0,12.0,1505.8,343.3,-0.2,0.8,451.807,13.63,0.03,323.1
01,2022-03-28T11:00:00,500.0,42.79,6.0312,-0.015,0.032,0.005,59.0,55.0,58.0,12.1,1505.9,358.6,-0.1,0.6,451.785,13.65,0.035,334.9
01,2022-03-28T11:30:00,500.0,42.79,6.0312,-0.021,0.001,0.008,58.0,53.0,53.0,12.1,1505.9,352.5,0.0,0.6,451.818,13.65,0.021,272.7
01,2022-03-28T12:00:00,500.0,42.79,6.0312,-0.027,-0.007,0.003,60.0,52.0,53.0,12.1,1505.9,339.4,-0.1,0.6,451.816,13.65,0.027,255.5
01,2022-03-28T12:30:00,500.0,42.79,6.0312,-0.048,-0.008,0.013,60.0,55.0,55.0,12.1,1505.9,326.1,-0.2,0.7,451.83,13.65,0.048,260.5
01,2022-03-28T13:00:00,500.0,42.79,6.0312,-0.045,-0.017,0.013,61.0,56.0,55.0,12.1,1505.8,326.7,-0.2,0.6,451.837,13.64,0.048,249.3
01,2022-03-28T13:30:00,500.0,42.79,6.0312,-0.066,-0.005,-0.006,61.0,56.0,57.0,12.1,1505.8,311.3,0.0,0.6,451.799,13.64,0.066,265.7
01,2022-03-28T14:00:00,500.0,42.79,6.0312,-0.076,-0.011,0.002,62.0,56.0,56.0,12.1,1505.8,322.7,-0.3,0.6,451.806,13.64,0.076,261.8
01,2022-03-28T14:30:00,500.0,42.79,6.0312,-0.079,0.006,-0.008,65.0,61.0,62.0,12.1,1505.8,316.1,-0.2,0.6,451.772,13.63,0.079,274.3
01,2022-03-28T15:00:00,500.0,42.79,6.0312,-0.058,0.016,0.003,65.0,59.0,59.0,12.1,1505.9,311.0,-0.1,0.6,451.827,13.67,0.06,285.4
01,2022-03-28T15:30:00,500.0,42.79,6.0312,-0.065,0.014,0.018,64.0,60.0,59.0,12.1,1506.0,310.9,-0.1,0.6,451.823,13.7,0.066,282.2
01,2022-03-28T16:00:00,500.0,42.79,6.0312,-0.062,0.011,0.005,64.0,59.0,60.0,12.1,1506.0,313.7,-0.2,0.6,451.841,13.68,0.062,280.1
01,2022-03-28T16:30:00,500.0,42.79,6.0312,-0.074,0.021,0.001,68.0,60.0,60.0,12.1,1506.0,320.2,-0.2,0.6,451.882,13.69,0.076,285.8
01,2022-03-28T17:00:00,500.0,42.79,6.0312,-0.078,0.008,0.006,66.0,61.0,60.0,12.1,1506.0,322.4,0.0,0.6,451.807,13.68,0.078,275.9
01,2022-03-28T17:30:00,500.0,42.79,6.0312,-0.063,0.025,-0.001,65.0,61.0,61.0,12.1,1506.0,320.4,-0.1,0.6,451.855,13.69,0.067,291.6
01,2022-03-28T18:00:00,500.0,42.79,6.0312,-0.059,0.034,0.01,64.0,59.0,60.0,12.1,1506.0,324.3,0.0,0.6,451.868,13.72,0.068,300.0
01,2022-03-28T18:30:00,500.0,42.79,6.0312,-0.055,0.034,0.013,63.0,59.0,60.0,12.0,1506.0,323.1,-0.1,0.6,451.891,13.71,0.064,301.7
01,2022-03-28T19:00:00,500.0,42.79,6.0312,-0.05,0.018,-0.007,65.0,60.0,62.0,12.1,1506.0,327.1,-0.3,0.8,451.865,13.68,0.053,289.8
01,2022-03-28T19:30:00,500.0,42.79,6.0312,-0.031,0.045,0.004,65.0,60.0,61.0,12.1,1505.8,329.6,-0.2,0.6,451.814,13.63,0.054,325.4
01,2022-03-28T20:00:00,500.0,42.79,6.0312,-0.029,0.03,-0.005,62.0,61.0,61.0,12.1,1505.8,336.0,-0.2,0.7,451.819,13.62,0.041,316.0
01,2022-03-28T20:30:00,500.0,42.79,6.0312,-0.032,0.035,0.001,64.0,60.0,61.0,12.1,1505.8,343.1,-0.2,0.6,451.854,13.62,0.047,317.6
01,2022-03-28T21:00:00,500.0,42.79,6.0312,-0.041,0.028,0.009,66.0,61.0,61.0,12.1,1505.8,345.7,-0.1,0.7,451.862,13.64,0.049,304.3
